Find Local Weather

World > North America > United States > Washington

Marblemount, Washington Regional Weather

Lat: 48.53N, Lon: 121.45W
Wx Zone: WAZ567
Warning FLW WEATHER ALERT - (More Info. Click Here) Warning
Feedback
Expires:201808181500;;255627
ASUS46 KSEW 181410
RWRWA 

WASHINGTON REGIONAL WEATHER ROUNDUP
NATIONAL WEATHER SERVICE SEATTLE WA
700 AM PDT SAT AUG 18 2018

NOTE:"FAIR" INDICATES FEW OR NO CLOUDS BELOW 12,000 FEET WITH NO 
SIGNIFICANT WEATHER AND/OR OBSTRUCTIONS TO VISIBILITY.


WAZ019-023-024-040-567>569-181500-
CASCADE MOUNTAINS AND COLUMBIA GORGE
  
CITY           SKY/WX    TMP DP  RH WIND       PRES   REMARKS
STAMPEDE PASS  NOT AVBL                                               
TROUTDALE, OR  PTCLDY    55  50  83 SE3       30.23S                  
HOOD RIVER, OR SUNNY     55  46  71 SW3       30.17R                  
THE DALLES, OR CLEAR     60  48  64 VRB3      30.14R                  
$$


SKY/WX - Weather  TMP - Temperature  DP - Dewpoint  RH - Relative Humidity
WIND - Wind Direction/Speed PRES - Barometric Pressure